{"data":{"norad_id":68059,"intl_designator":"2026-041V","name":"STARLINK-36917","alt_names":[],"object_type":"PAYLOAD","status":"ACTIVE","operator":null,"country":"US","launch_date":"2026-03-02","launch_site_code":"AFETR","launch_vehicle":null,"mission":null,"orbit_class":"UNKNOWN","rcs_meters":null,"size_class":null,"mass_kg":null,"dimensions":null,"purposes":["comms"],"wikipedia_slug":null,"has_3d_model":false,"image_url":null,"decayed_at":null,"tle_current":{"epoch":"2026-05-25T03:18:23.925024Z","epoch_age_seconds":57034,"freshness":"FRESH","line1":"1 68059U 26041V   26145.13777691  .00018245  00000+0  54969-3 0  9995","line2":"2 68059  53.1602  53.3054 0001156  81.2441 278.8692 15.34406818 13118","mean_motion":15.34406818,"eccentricity":0.0001156,"inclination_deg":53.1602,"raan_deg":53.3054,"arg_perigee_deg":81.2441,"mean_anomaly_deg":278.8692,"bstar":0.00054969,"rev_number":1311,"period_min":93.847341077182,"perigee_km":461.89217696012,"apogee_km":463.47377453851,"semimajor_km":6840.8199757493,"source":"CELESTRAK","updated_at":"2026-05-25T13:38:21.814662Z"}}}